(185162) = 2006 SD215

Discovered at Kitt Peak on 2006-09-27 by Spacewatch.

Orbit

Orbit type: Main Belt

Note: WebGL enabled browser required.

epoch2023-09-13.0
epoch JD2460200.5
perihelion date2020-02-29.49472
perihelion JD2458908.99472
argument of perihelion (°)71.31730
ascending node (°)23.50356
inclination (°)17.43734
eccentricity0.1556828
perihelion distance (AU)2.2114666
Tisserand w.r.t. Jupiter3.3
ΔV w.r.t. Earth (km/sec)10.8
semimajor axis (AU)2.6192368
mean anomaly (°)300.28795
mean daily motion (°/day)0.23251000
aphelion distance (AU)3.027
period (years)4.24
P-vector [x]-0.06667944
P-vector [y]0.76469096
P-vector [z]0.64093806
Q-vector [x]-0.99059167
Q-vector [y]-0.12767388
Q-vector [z]0.04926991
absolute magnitude16.6
phase slope0.15
uncertainty0
referenceMPEC 2023-Y63
observations used348
oppositions13
arc length (days)7684
first opposition used2002
last opposition used2023
residual rms (arc-secs)0.75
perturbers coarse indicatorM-v
perturbers precise indicator003Ek
first observation date used2002-12-03.0
last observation date used2023-12-17.0
computer nameMPCLINUX
JD of orbit computation2456937.530297
perihelion JD uncertainty (days)1.5440E-04
argument of perihelion uncertainty (°)3.6971E-05
ascending node uncertainty (°)1.5233E-05
inclination uncertainty (°)9.0726E-06
eccentricity uncertainty 3.8841E-08
perihelion distance uncertainty (AU)1.0280E-07
Minimum Orbit Intersection Distances (in AU)
for orbit epoch: 2460200.5, reference: E2023-Y63
Mercury1.90747
Venus1.52964
Earth1.29078
Mars0.79411
Jupiter2.35535
Saturn6.87367
Uranus15.8935
Neptune27.2803

Observations

359 total observations over interval: 2002 12 03.30585 – 2023 12 17.186259
These data are available for download (format description).

Date (UT) J2000 RA J2000 Dec Magn Location Ref
2002 12 03.30585 02 42 06.59 +33 44 36.9 19.3   644 – Palomar Mountain/NEAT MPS 192307
2002 12 03.33090 02 42 04.98 +33 44 36.9 19.4   644 – Palomar Mountain/NEAT MPS 192307
2002 12 03.36551 02 42 02.76 +33 44 37.1 19.6   644 – Palomar Mountain/NEAT MPS 192307
2002 12 12.15110 02 34 21.35 +33 42 09.9 19.7   644 – Palomar Mountain/NEAT MPS 192307
2002 12 12.17230 02 34 20.39 +33 42 09.2 19.9   644 – Palomar Mountain/NEAT MPS 192307
2002 12 12.19373 02 34 19.43 +33 42 08.5 19.9   644 – Palomar Mountain/NEAT MPS 192307
2004 04 13.30953 13 22 35.37 -08 11 25.4 20.3 V 691 – Steward Observatory, Kitt Peak-Spacewatch MPS 192307
2004 04 13.33814 13 22 33.39 -08 11 25.7 20.5 V 691 – Steward Observatory, Kitt Peak-Spacewatch MPS 192307
2004 04 13.36715 13 22 31.45 -08 11 26.7 20.6 V 691 – Steward Observatory, Kitt Peak-Spacewatch MPS 192307
2004 05 09.18655 12 58 04.10 -08 27 43.3 20.9 V 691 – Steward Observatory, Kitt Peak-Spacewatch MPS 192307
2004 05 09.21386 12 58 02.92 -08 27 45.2 20.6 V 691 – Steward Observatory, Kitt Peak-Spacewatch MPS 192307
2004 05 09.24134 12 58 01.71 -08 27 48.0 20.7 V 691 – Steward Observatory, Kitt Peak-Spacewatch MPS 192307
2006 09 18.39864 01 46 22.76 +06 16 40.6 19.7 R 699 – Lowell Observatory-LONEOS MPS 182566
2006 09 18.42058 01 46 21.57 +06 16 42.6   699 – Lowell Observatory-LONEOS MPS 182566
2006 09 18.44253 01 46 20.77 +06 16 47.9   699 – Lowell Observatory-LONEOS MPS 182566
2006 09 18.46447 01 46 19.78 +06 16 49.3   699 – Lowell Observatory-LONEOS MPS 182566
2006 09 27.36308 01 39 02.99 +06 35 31.9 20.0 V 691 – Steward Observatory, Kitt Peak-Spacewatch MPS 182918
2006 09 27.38046 01 39 01.98 +06 35 33.6 20.1 V 691 – Steward Observatory, Kitt Peak-Spacewatch MPS 182918
2006 09 27.39792 01 39 00.97 +06 35 35.7 20.1 V 691 – Steward Observatory, Kitt Peak-Spacewatch MPS 182918
2006 09 29.34507 01 37 10.01 +06 39 12.7   691 – Steward Observatory, Kitt Peak-Spacewatch MPS 182918
2006 09 29.36231 01 37 08.98 +06 39 15.0   691 – Steward Observatory, Kitt Peak-Spacewatch MPS 182918
2006 09 29.37963 01 37 07.88 +06 39 16.5   691 – Steward Observatory, Kitt Peak-Spacewatch MPS 182918
2006 10 03.38364 01 33 05.01 +06 46 18.8   691 – Steward Observatory, Kitt Peak-Spacewatch MPS 182918
2006 10 03.40094 01 33 03.90 +06 46 20.5   691 – Steward Observatory, Kitt Peak-Spacewatch MPS 182918
2006 10 03.41831 01 33 02.78 +06 46 22.1   691 – Steward Observatory, Kitt Peak-Spacewatch MPS 182918
2006 10 15.37333 01 19 38.78 +07 05 31.2 18.7 V 703 – Catalina Sky Survey MPS 183084
2006 10 15.37971 01 19 38.28 +07 05 32.0 18.7 V 703 – Catalina Sky Survey MPS 183084
2006 10 15.38609 01 19 37.95 +07 05 32.4 18.4 V 703 – Catalina Sky Survey MPS 183084
2006 10 15.39244 01 19 37.45 +07 05 33.2 18.7 V 703 – Catalina Sky Survey MPS 183084
2006 10 16.15855 01 18 44.32 +07 06 45.1 19.6 V 691 – Steward Observatory, Kitt Peak-Spacewatch MPS 183084
2006 10 16.17593 01 18 43.07 +07 06 46.6 19.8 V 691 – Steward Observatory, Kitt Peak-Spacewatch MPS 183084
2006 10 16.18886 01 18 42.13 +07 06 47.8   291 – LPL/Spacewatch II MPS 183084
2006 10 16.19262 01 18 41.87 +07 06 48.2   291 – LPL/Spacewatch II MPS 183084
2006 10 16.19331 01 18 41.83 +07 06 48.4 19.6 V 691 – Steward Observatory, Kitt Peak-Spacewatch MPS 183084
2006 10 16.19904 01 18 41.40 +07 06 48.8   291 – LPL/Spacewatch II MPS 183084
2006 10 27.23626 01 06 04.39 +07 25 32.0 19.5 V G96 – Mt. Lemmon Survey MPS 184178
2006 10 27.24580 01 06 03.78 +07 25 33.0 19.6 V G96 – Mt. Lemmon Survey MPS 184178
2006 10 27.25539 01 06 03.13 +07 25 34.1 19.6 V G96 – Mt. Lemmon Survey MPS 184178
2006 10 27.26479 01 06 02.48 +07 25 35.3 19.5 V G96 – Mt. Lemmon Survey MPS 184178
2006 10 28.11338 01 05 07.57 +07 27 13.1 20.2 V 691 – Steward Observatory, Kitt Peak-Spacewatch MPS 185571
2006 10 28.13078 01 05 06.41 +07 27 15.0 19.9 V 691 – Steward Observatory, Kitt Peak-Spacewatch MPS 185571
2006 10 28.14817 01 05 05.25 +07 27 17.3 20.2 V 691 – Steward Observatory, Kitt Peak-Spacewatch MPS 185571
2006 11 15.21213 00 49 06.31 +08 13 35.3 20.3 V G96 – Mt. Lemmon Survey MPS 187078
2006 11 15.21662 00 49 06.13 +08 13 36.6 20.1 V G96 – Mt. Lemmon Survey MPS 187078
2006 11 15.22111 00 49 05.98 +08 13 37.4 20.4 V G96 – Mt. Lemmon Survey MPS 187078
2006 11 15.22553 00 49 05.77 +08 13 38.1 20.3 V G96 – Mt. Lemmon Survey MPS 187078
2006 11 18.09265 00 47 22.08 +08 23 31.8   291 – LPL/Spacewatch II MPS 188758
2006 11 18.10449 00 47 21.67 +08 23 34.7   291 – LPL/Spacewatch II MPS 188758
2006 11 18.11486 00 47 21.30 +08 23 36.9   291 – LPL/Spacewatch II MPS 188759
2006 11 18.18992 00 47 18.63 +08 23 52.6 19.9 V G96 – Mt. Lemmon Survey MPS 188759
2006 11 18.19490 00 47 18.42 +08 23 53.7 20.0 V G96 – Mt. Lemmon Survey MPS 188759
2006 11 18.19984 00 47 18.27 +08 23 54.4 19.9 V G96 – Mt. Lemmon Survey MPS 188759
2006 11 18.20488 00 47 18.09 +08 23 55.8 20.0 V G96 – Mt. Lemmon Survey MPS 188759
2008 03 04.39194 12 25 39.21 +12 58 34.3 19.9 V G96 – Mt. Lemmon Survey MPS 240782
2008 03 04.39696 12 25 38.85 +12 58 35.1 19.6 V G96 – Mt. Lemmon Survey MPS 240782
2008 03 04.40196 12 25 38.64 +12 58 35.6 19.6 V G96 – Mt. Lemmon Survey MPS 240782
2008 03 04.40699 12 25 38.28 +12 58 35.9 19.7 V G96 – Mt. Lemmon Survey MPS 240782
2008 03 08.35263 12 21 34.55 +13 03 27.2 19.8   704 – Lincoln Laboratory ETS, New Mexico MPS 242166
2008 03 08.36401 12 21 33.79 +13 03 26.8 19.8   704 – Lincoln Laboratory ETS, New Mexico MPS 242166
2008 03 08.37539 12 21 33.04 +13 03 28.4 19.5   704 – Lincoln Laboratory ETS, New Mexico MPS 242166
2008 03 14.27403 12 15 05.04 +13 07 36.7 19.6 C 704 – Lincoln Laboratory ETS, New Mexico MPS 287903
2008 03 14.29581 12 15 03.39 +13 07 36.8 19.4 C 704 – Lincoln Laboratory ETS, New Mexico MPS 287903
2008 03 14.30681 12 15 02.71 +13 07 37.6 19.5 C 704 – Lincoln Laboratory ETS, New Mexico MPS 287903
2008 04 03.18276 11 53 06.42 +12 42 37.2 19.3 C 704 – Lincoln Laboratory ETS, New Mexico MPS 288581
2008 04 03.20590 11 53 05.01 +12 42 33.4 19.2 C 704 – Lincoln Laboratory ETS, New Mexico MPS 288581
2008 04 03.21760 11 53 04.32 +12 42 29.7 19.5 C 704 – Lincoln Laboratory ETS, New Mexico MPS 288581
2008 04 14.24103 11 43 18.15 +11 59 03.4 20.3 V G96 – Mt. Lemmon Survey MPS 246789
2008 04 14.24709 11 43 17.86 +11 59 01.5 20.3 V G96 – Mt. Lemmon Survey MPS 246789
2008 04 14.25324 11 43 17.58 +11 58 59.9 20.3 V G96 – Mt. Lemmon Survey MPS 246789
2008 04 14.25933 11 43 17.29 +11 58 58.0 20.4 V G96 – Mt. Lemmon Survey MPS 246789
2010 09 12.477369 00 10 12.718 -14 22 47.21 20.84 g F51 – Pan-STARRS 1, Haleakala MPS 365153
2010 09 12.488550 00 10 12.006 -14 22 48.13 20.94 g F51 – Pan-STARRS 1, Haleakala MPS 365153
2010 09 18.500320 00 03 50.831 -14 30 46.70 19.97 r F51 – Pan-STARRS 1, Haleakala MPS 365153
2010 09 18.511872 00 03 50.065 -14 30 47.03 19.97 r F51 – Pan-STARRS 1, Haleakala MPS 365153
2012 01 23.33367 10 50 53.12 +35 52 12.2 19.6 V 703 – Catalina Sky Survey MPS 409901
2012 01 23.34390 10 50 52.76 +35 52 15.9 19.3 V 703 – Catalina Sky Survey MPS 409901
2012 01 23.35413 10 50 52.22 +35 52 20.5 20.0 V 703 – Catalina Sky Survey MPS 409901
2012 02 01.32958 10 43 21.14 +36 41 42.4 20.9 V 703 – Catalina Sky Survey MPS 411313
2012 02 01.33469 10 43 20.71 +36 41 43.5 20.5 V 703 – Catalina Sky Survey MPS 411313
2012 02 01.33979 10 43 20.38 +36 41 47.4 19.6 V 703 – Catalina Sky Survey MPS 411313
2012 02 01.34488 10 43 20.02 +36 41 48.3 20.5 V 703 – Catalina Sky Survey MPS 411313
2012 02 11.43083 10 32 07.274 +37 17 25.73 19.5 i F51 – Pan-STARRS 1, Haleakala MPS 412727
2012 02 11.44315 10 32 06.335 +37 17 27.37 19.6 i F51 – Pan-STARRS 1, Haleakala MPS 412727
2012 03 03.16982 10 06 36.00 +36 49 08.5 19.9 V G96 – Mt. Lemmon Survey MPS 415823
2012 03 03.17509 10 06 35.64 +36 49 06.7 19.9 V G96 – Mt. Lemmon Survey MPS 415823
2012 03 03.18036 10 06 35.28 +36 49 05.3 19.6 V G96 – Mt. Lemmon Survey MPS 415823
2012 03 03.18561 10 06 34.88 +36 49 03.9 19.9 V G96 – Mt. Lemmon Survey MPS 415823
2014 09 02.40775 22 40 43.812 -30 57 30.93 20.6 w F51 – Pan-STARRS 1, Haleakala MPS 530995
2014 09 02.41830 22 40 43.097 -30 57 31.50 20.7 w F51 – Pan-STARRS 1, Haleakala MPS 530995
